,,Stat5,,Stat1,,Stat2,,Stat3,,Stat4,,Wind1,,Wind1,
time,status,PA1M_AVG,status,PR1M_SUM,status,RH1M_AVG,status,SR1M_AVG,status,TA1M_AVG,status,W1dAve1m,status,W1sAve1m,
2003-01-21, 00:00:01,VALID,919.203,VALID,0,VALID,99.4484,VALID,-0.0339617,VALID,19.4106,VALID,103,VALID,0.767314,
2003-01-21, 00:01:01,VALID,919.195,VALID,0,VALID,99.4624,VALID,0,VALID,19.4196,VALID,105,VALID,0.535362,
2003-01-21, 00:02:00,VALID,919.178,VALID,0,VALID,99.4789,VALID,0,VALID,19.436,VALID,113,VALID,0.39442,
2003-01-21, 00:03:00,VALID,919.162,VALID,0,VALID,99.4891,VALID,0,VALID,19.4357,VALID,114,VALID,0.21804,
2003-01-21, 00:04:00,VALID,919.138,VALID,0,VALID,99.4916,VALID,0,VALID,19.4561,VALID,124,VALID,0.315034,
2003-01-21, 00:05:00,VALID,919.12,VALID,0,VALID,99.5132,VALID,-0.0169808,VALID,19.4658,VALID,138,VALID,0.269314,
2003-01-21, 00:06:00,VALID,919.097,VALID,0,VALID,99.5043,VALID,-0.0169808,VALID,19.4752,VALID,137,VALID,0.269215,
2003-01-21, 00:07:01,VALID,919.077,VALID,0,VALID,99.5145,VALID,-0.0169808,VALID,19.4817,VALID,134,VALID,0.278033,
2003-01-21, 00:08:00,VALID,919.055,VALID,0,VALID,99.5043,VALID,-0.0169808,VALID,19.4817,VALID,113,VALID,0.3233,
2003-01-21, 00:09:00,VALID,919.047,VALID,0,VALID,99.5069,VALID,-0.0169808,VALID,19.4715,VALID,124,VALID,0.452703,
2003-01-21, 00:10:00,VALID,919.032,VALID,0,VALID,99.4967,VALID,0,VALID,19.4785,VALID,123,VALID,0.548713,
2003-01-21, 00:11:00,VALID,919.024,VALID,0,VALID,99.4992,VALID,0.0169808,VALID,19.4556,VALID,114,VALID,0.95715,
2003-01-21, 00:12:00,VALID,919.027,VALID,0,VALID,99.4967,VALID,0,VALID,19.433,VALID,109,VALID,1.23057,
2003-01-21, 00:13:00,VALID,919.017,VALID,0,VALID,99.4967,VALID,0,VALID,19.4233,VALID,109,VALID,1.07881,
2003-01-21, 00:14:01,VALID,919.018,VALID,0,VALID,99.4992,VALID,-0.0169808,VALID,19.4039,VALID,115,VALID,0.759233,
2003-01-21, 00:15:00,VALID,919.012,VALID,0,VALID,99.498,VALID,0,VALID,19.4037,VALID,112,VALID,0.648655,
2003-01-21, 00:16:01,VALID,919.003,VALID,0,VALID,99.5132,VALID,0.0169808,VALID,19.4004,VALID,129,VALID,0.97309,
2003-01-21, 00:17:00,VALID,918.997,VALID,0,VALID,99.5272,VALID,0.0169808,VALID,19.4104,VALID,133,VALID,0.879972,
2003-01-21, 00:18:00,VALID,918.989,VALID,0,VALID,99.5488,VALID,0,VALID,19.423,VALID,142,VALID,1.13302,
2003-01-21, 00:19:00,VALID,918.972,VALID,0,VALID,99.5514,VALID,0,VALID,19.4526,VALID,141,VALID,0.890165,
2003-01-21, 00:20:00,VALID,918.958,VALID,0,VALID,99.559,VALID,0,VALID,19.4588,VALID,136,VALID,1.02817,
2003-01-21, 00:21:00,VALID,918.946,VALID,0,VALID,99.5628,VALID,0.0169808,VALID,19.4454,VALID,142,VALID,1.07769,
2003-01-21, 00:22:00,VALID,918.94,VALID,0,VALID,99.5565,VALID,-0.0169808,VALID,19.4556,VALID,118,VALID,0.555773,
2003-01-21, 00:23:01,VALID,918.94,VALID,0,VALID,99.5552,VALID,-0.0339617,VALID,19.4521,VALID,126,VALID,0.703362,
2003-01-21, 00:24:00,VALID,918.921,VALID,0,VALID,99.5501,VALID,-0.0169808,VALID,19.4427,VALID,136,VALID,0.561867,
2003-01-21, 00:25:01,VALID,918.937,VALID,0,VALID,99.5603,VALID,0,VALID,19.4298,VALID,138,VALID,0.516774,
2003-01-21, 00:26:00,VALID,918.916,VALID,0,VALID,99.5641,VALID,-0.0339617,VALID,19.4265,VALID,110,VALID,0.528883,
2003-01-21, 00:27:01,VALID,918.917,VALID,0,VALID,99.5704,VALID,-0.0169808,VALID,19.4235,VALID,130,VALID,0.559028,
2003-01-21, 00:28:00,VALID,918.907,VALID,0,VALID,99.5603,VALID,-0.0169808,VALID,19.4198,VALID,132,VALID,0.551866,
2003-01-21, 00:29:00,VALID,918.9,VALID,0,VALID,99.5666,VALID,0,VALID,19.4166,VALID,135,VALID,0.544034,
2003-01-21, 00:30:00,VALID,918.885,VALID,0,VALID,99.5755,VALID,0,VALID,19.4166,VALID,139,VALID,0.622255,
2003-01-21, 00:31:00,VALID,918.884,VALID,0,VALID,99.5768,VALID,0,VALID,19.4327,VALID,145,VALID,0.632123,
2003-01-21, 00:32:01,VALID,918.885,VALID,0,VALID,99.5781,VALID,0,VALID,19.4429,VALID,141,VALID,0.252604,
2003-01-21, 00:33:00,VALID,918.887,VALID,0,VALID,99.5921,VALID,-0.0169808,VALID,19.4524,VALID,127,VALID,0.164063,
2003-01-21, 00:34:01,VALID,918.884,VALID,0,VALID,99.5933,VALID,0,VALID,19.4459,VALID,127,VALID,0.101345,
2003-01-21, 00:35:00,VALID,918.89,VALID,0,VALID,99.5959,VALID,0,VALID,19.4521,VALID,128,VALID,0.115767,
2003-01-21, 00:36:00,VALID,918.884,VALID,0,VALID,99.5972,VALID,-0.0169808,VALID,19.4653,VALID,176,VALID,0.226351,
2003-01-21, 00:37:00,VALID,918.88,VALID,0,VALID,99.5946,VALID,-0.0169808,VALID,19.4782,VALID,176,VALID,0,
2003-01-21, 00:38:00,VALID,918.876,VALID,0,VALID,99.5959,VALID,0,VALID,19.4847,VALID,171,VALID,0.0421402,
2003-01-21, 00:39:00,VALID,918.857,VALID,0,VALID,99.6035,VALID,0,VALID,19.4842,VALID,99,VALID,0.260634,
2003-01-21, 00:40:00,VALID,918.831,VALID,0,VALID,99.6073,VALID,-0.0169808,VALID,19.5011,VALID,97,VALID,0.237196,
2003-01-21, 00:41:01,VALID,918.82,VALID,0,VALID,99.6048,VALID,0,VALID,19.4909,VALID,105,VALID,0.216383,
2003-01-21, 00:42:00,VALID,918.803,VALID,0,VALID,99.5984,VALID,-0.0339617,VALID,19.4879,VALID,60,VALID,0.482897,
2003-01-21, 00:43:01,VALID,918.78,VALID,0,VALID,99.5959,VALID,0,VALID,19.4812,VALID,71,VALID,0.647518,
2003-01-21, 00:44:00,VALID,918.786,VALID,0,VALID,99.5895,VALID,0,VALID,19.4747,VALID,80,VALID,0.721828,
2003-01-21, 00:45:01,VALID,918.791,VALID,0,VALID,99.5933,VALID,-0.0169808,VALID,19.4424,VALID,69,VALID,0.795356,
2003-01-21, 00:46:00,VALID,918.799,VALID,0,VALID,99.5946,VALID,-0.0169808,VALID,19.4526,VALID,63,VALID,1.11914,
2003-01-21, 00:47:00,VALID,918.807,VALID,0,VALID,99.5972,VALID,0,VALID,19.4651,VALID,54,VALID,1.00947,
2003-01-21, 00:48:00,VALID,918.837,VALID,0,VALID,99.5997,VALID,0.0169808,VALID,19.4554,VALID,58,VALID,0.831503,
2003-01-21, 00:49:00,VALID,918.846,VALID,0,VALID,99.6061,VALID,-0.0339617,VALID,19.4327,VALID,62,VALID,0.66659,
2003-01-21, 00:50:01,VALID,918.863,VALID,0,VALID,99.5972,VALID,-0.0509425,VALID,19.4298,VALID,87,VALID,0.448627,
2003-01-21, 00:51:00,VALID,918.867,VALID,0,VALID,99.5997,VALID,-0.0509425,VALID,19.4138,VALID,101,VALID,0.292969,
2003-01-21, 00:52:01,VALID,918.869,VALID,0,VALID,99.5997,VALID,-0.0509425,VALID,19.4069,VALID,97,VALID,0.455729,
2003-01-21, 00:53:00,VALID,918.855,VALID,0,VALID,99.6061,VALID,-0.0509425,VALID,19.433,VALID,80,VALID,0.224905,
2003-01-21, 00:54:00,VALID,918.844,VALID,0,VALID,99.6124,VALID,-0.0509425,VALID,19.4524,VALID,80,VALID,0.0967061,
2003-01-21, 00:55:00,VALID,918.832,VALID,0,VALID,99.6175,VALID,-0.0679233,VALID,19.4524,VALID,77,VALID,0.194393,
2003-01-21, 00:56:00,VALID,918.838,VALID,0,VALID,99.615,VALID,-0.0169808,VALID,19.472,VALID,76,VALID,0.157197,
2003-01-21, 00:57:00,VALID,918.831,VALID,0,VALID,99.62,VALID,-0.0679233,VALID,19.4879,VALID,76,VALID,0.117188,
2003-01-21, 00:58:00,VALID,918.834,VALID,0,VALID,99.6124,VALID,-0.0679233,VALID,19.511,VALID,76,VALID,0,
2003-01-21, 00:59:01,VALID,918.839,VALID,0,VALID,99.62,VALID,-0.0339617,VALID,19.5073,VALID,76,VALID,0,
2003-01-21, 01:00:00,VALID,918.822,VALID,0,VALID,99.6175,VALID,-0.0339617,VALID,19.5043,VALID,76,VALID,0,
2003-01-21, 01:01:01,VALID,918.82,VALID,0,VALID,99.6099,VALID,-0.0679233,VALID,19.4849,VALID,64,VALID,0.132123,
2003-01-21, 01:02:00,VALID,918.805,VALID,0,VALID,99.615,VALID,-0.0679233,VALID,19.4782,VALID,19,VALID,0.442472,
2003-01-21, 01:03:01,VALID,918.78,VALID,0,VALID,99.5984,VALID,-0.0339617,VALID,19.4427,VALID,359,VALID,0.492405,
2003-01-21, 01:04:00,VALID,918.751,VALID,0,VALID,99.5997,VALID,-0.0339617,VALID,19.4198,VALID,357,VALID,0.609592,
2003-01-21, 01:05:00,VALID,918.713,VALID,0,VALID,99.5883,VALID,-0.0339617,VALID,19.4007,VALID,347,VALID,0.638021,
2003-01-21, 01:06:00,VALID,918.685,VALID,0,VALID,99.5895,VALID,-0.0339617,VALID,19.3815,VALID,325,VALID,0.789063,
2003-01-21, 01:07:00,VALID,918.661,VALID,0,VALID,99.5921,VALID,-0.0509425,VALID,19.3684,VALID,328,VALID,0.65625,
2003-01-21, 01:08:01,VALID,918.648,VALID,0,VALID,99.587,VALID,-0.0849042,VALID,19.3716,VALID,325,VALID,0.252604,
2003-01-21, 01:09:00,VALID,918.644,VALID,0,VALID,99.5832,VALID,-0.0509425,VALID,19.3686,VALID,317,VALID,0.0514323,
2003-01-21, 01:10:01,VALID,918.637,VALID,0,VALID,99.5883,VALID,-0.0509425,VALID,19.3813,VALID,313,VALID,0.00217014,
2003-01-21, 01:11:00,VALID,918.613,VALID,0,VALID,99.6086,VALID,-0.0679233,VALID,19.3877,VALID,313,VALID,0,
2003-01-21, 01:12:00,VALID,918.597,VALID,0,VALID,99.6124,VALID,-0.0339617,VALID,19.4007,VALID,313,VALID,0,
2003-01-21, 01:13:00,VALID,918.572,VALID,0,VALID,99.6035,VALID,-0.0169808,VALID,19.394,VALID,313,VALID,0,
2003-01-21, 01:14:00,VALID,918.547,VALID,0,VALID,99.6061,VALID,-0.0169808,VALID,19.4039,VALID,313,VALID,0,
2003-01-21, 01:15:00,VALID,918.539,VALID,0,VALID,99.5984,VALID,-0.0169808,VALID,19.4039,VALID,313,VALID,0.15842,
2003-01-21, 01:16:00,VALID,918.53,VALID,0,VALID,99.6086,VALID,-0.0849042,VALID,19.3882,VALID,318,VALID,0.118273,
2003-01-21, 01:17:01,VALID,918.533,VALID,0,VALID,99.6086,VALID,-0.0339617,VALID,19.3907,VALID,347,VALID,0.362689,
2003-01-21, 01:18:00,VALID,918.542,VALID,0,VALID,99.6111,VALID,-0.0339617,VALID,19.3945,VALID,348,VALID,0.0101351,
2003-01-21, 01:19:01,VALID,918.543,VALID,0,VALID,99.6099,VALID,-0.0509425,VALID,19.3848,VALID,348,VALID,0.0696232,
2003-01-21, 01:20:00,VALID,918.55,VALID,0,VALID,99.6086,VALID,-0.0509425,VALID,19.3848,VALID,6,VALID,0.433475,
2003-01-21, 01:21:01,VALID,918.55,VALID,0,VALID,99.6099,VALID,-0.0339617,VALID,19.4009,VALID,22,VALID,0.374349,
2003-01-21, 01:22:00,VALID,918.544,VALID,0,VALID,99.6213,VALID,-0.0509425,VALID,19.4136,VALID,22,VALID,0.454644,
2003-01-21, 01:23:00,VALID,918.522,VALID,0,VALID,99.6124,VALID,-0.0679233,VALID,19.4432,VALID,6,VALID,0.447206,
2003-01-21, 01:24:01,VALID,918.509,VALID,0,VALID,99.6251,VALID,-0.0679233,VALID,19.4427,VALID,13,VALID,0.6856,
2003-01-21, 01:25:00,VALID,918.49,VALID,0,VALID,99.615,VALID,-0.0679233,VALID,19.4106,VALID,9,VALID,1.13189,
2003-01-21, 01:26:01,VALID,918.467,VALID,0,VALID,99.6162,VALID,-0.0339617,VALID,19.4106,VALID,6,VALID,0.75,
2003-01-21, 01:27:00,VALID,918.453,VALID,0,VALID,99.6188,VALID,-0.0679233,VALID,19.4138,VALID,11,VALID,0.449219,
2003-01-21, 01:28:01,VALID,918.44,VALID,0,VALID,99.6188,VALID,-0.0339617,VALID,19.4074,VALID,10,VALID,0.3023,
2003-01-21, 01:29:00,VALID,918.436,VALID,0,VALID,99.6188,VALID,-0.0169808,VALID,19.3972,VALID,12,VALID,0.8009,
2003-01-21, 01:30:01,VALID,918.434,VALID,0,VALID,99.6239,VALID,-0.0509425,VALID,19.427,VALID,18,VALID,0.614865,
2003-01-21, 01:31:00,VALID,918.415,VALID,0,VALID,99.615,VALID,-0.0849042,VALID,19.3907,VALID,18,VALID,0.633042,
2003-01-21, 01:32:00,VALID,918.402,VALID,0,VALID,99.615,VALID,-0.0679233,VALID,19.394,VALID,13,VALID,0.710464,
2003-01-21, 01:33:01,VALID,918.406,VALID,0,VALID,99.6226,VALID,-0.0339617,VALID,19.4007,VALID,8,VALID,0.978082,
2003-01-21, 01:34:00,VALID,918.397,VALID,0,VALID,99.6213,VALID,-0.0679233,VALID,19.4141,VALID,13,VALID,0.9477,
2003-01-21, 01:35:01,VALID,918.394,VALID,0,VALID,99.6239,VALID,-0.0339617,VALID,19.4074,VALID,11,VALID,0.602509,
2003-01-21, 01:36:00,VALID,918.388,VALID,0,VALID,99.6353,VALID,-0.0169808,VALID,19.4205,VALID,14,VALID,0.560177,
2003-01-21, 01:37:01,VALID,918.392,VALID,0,VALID,99.6315,VALID,-0.0509425,VALID,19.4166,VALID,20,VALID,0.591452,
2003-01-21, 01:38:01,VALID,918.379,VALID,0,VALID,99.6366,VALID,-0.0339617,VALID,19.4201,VALID,24,VALID,0.70928,
2003-01-21, 01:39:01,VALID,918.375,VALID,0,VALID,99.6391,VALID,-0.0339617,VALID,19.4228,VALID,32,VALID,0.625651,
2003-01-21, 01:40:01,VALID,918.38,VALID,0,VALID,99.6391,VALID,-0.0679233,VALID,19.4335,VALID,29,VALID,0.645616,
2003-01-21, 01:41:01,VALID,918.365,VALID,0,VALID,99.6315,VALID,-0.0679233,VALID,19.4394,VALID,8,VALID,0.664299,
2003-01-21, 01:42:01,VALID,918.345,VALID,0,VALID,99.6442,VALID,-0.0679233,VALID,19.4265,VALID,9,VALID,0.574324,
2003-01-21, 01:43:01,VALID,918.33,VALID,0,VALID,99.6531,VALID,-0.0509425,VALID,19.4265,VALID,4,VALID,0.409926,
2003-01-21, 01:44:01,VALID,918.3,VALID,0,VALID,99.6417,VALID,0,VALID,19.4298,VALID,4,VALID,0.189631,
2003-01-21, 01:45:01,VALID,918.28,VALID,0,VALID,99.6378,VALID,-0.0339617,VALID,19.4397,VALID,4,VALID,0.27322,
2003-01-21, 01:46:01,VALID,918.262,VALID,0,VALID,99.6455,VALID,-0.0339617,VALID,19.4655,VALID,4,VALID,0.179036,
2003-01-21, 01:47:01,VALID,918.253,VALID,0,VALID,99.6506,VALID,-0.0169808,VALID,19.4745,VALID,4,VALID,0.0778883,
2003-01-21, 01:48:01,VALID,918.245,VALID,0,VALID,99.6455,VALID,-0.0339617,VALID,19.4653,VALID,4,VALID,0.147804,
2003-01-21, 01:49:01,VALID,918.234,VALID,0,VALID,99.6506,VALID,-0.0169808,VALID,19.4549,VALID,30,VALID,0.326517,
2003-01-21, 01:50:01,VALID,918.222,VALID,0,VALID,99.6378,VALID,0,VALID,19.4352,VALID,26,VALID,0.54214,
2003-01-21, 01:51:01,VALID,918.2,VALID,0,VALID,99.6328,VALID,0,VALID,19.4094,VALID,22,VALID,0.462023,
2003-01-21, 01:52:01,VALID,918.188,VALID,0,VALID,99.6391,VALID,0,VALID,19.3995,VALID,36,VALID,0.483507,
2003-01-21, 01:53:01,VALID,918.2,VALID,0,VALID,99.6442,VALID,0.0169808,VALID,19.3868,VALID,45,VALID,0.465672,
2003-01-21, 01:54:01,VALID,918.186,VALID,0,VALID,99.6366,VALID,0,VALID,19.3545,VALID,40,VALID,0.343117,
2003-01-21, 01:55:01,VALID,918.181,VALID,0,VALID,99.6315,VALID,0.0169808,VALID,19.3579,VALID,54,VALID,0.484375,
2003-01-21, 01:56:00,VALID,918.193,VALID,0,VALID,99.6289,VALID,0.0339617,VALID,19.3388,VALID,70,VALID,0.633286,
2003-01-21, 01:57:00,VALID,918.193,VALID,0,VALID,99.6302,VALID,0.0169808,VALID,19.3221,VALID,72,VALID,0.643229,
2003-01-21, 01:58:00,VALID,918.183,VALID,0,VALID,99.6289,VALID,0.0339617,VALID,19.2993,VALID,78,VALID,0.573351,
2003-01-21, 01:59:00,VALID,918.167,VALID,0,VALID,99.6188,VALID,0.0169808,VALID,19.2898,VALID,88,VALID,0.762311,
2003-01-21, 02:00:00,VALID,918.16,VALID,0,VALID,99.6239,VALID,0.0169808,VALID,19.2804,VALID,85,VALID,0.650549,
2003-01-21, 02:01:00,VALID,918.145,VALID,0,VALID,99.6239,VALID,0,VALID,19.2839,VALID,85,VALID,0.860983,
2003-01-21, 02:02:00,VALID,918.15,VALID,0,VALID,99.6264,VALID,0.0169808,VALID,19.2772,VALID,94,VALID,1.05137,
2003-01-21, 02:03:00,VALID,918.151,VALID,0,VALID,99.6289,VALID,0.0169808,VALID,19.2774,VALID,93,VALID,1.00282,
2003-01-21, 02:04:00,VALID,918.166,VALID,0,VALID,99.6366,VALID,0.0509425,VALID,19.2734,VALID,92,VALID,0.736328,
2003-01-21, 02:05:00,VALID,918.182,VALID,0,VALID,99.6302,VALID,0.0169808,VALID,19.2774,VALID,97,VALID,0.731534,
2003-01-21, 02:06:00,VALID,918.189,VALID,0,VALID,99.6366,VALID,0,VALID,19.2776,VALID,99,VALID,0.790541,
2003-01-21, 02:07:00,VALID,918.182,VALID,0,VALID,99.6378,VALID,0,VALID,19.2814,VALID,109,VALID,0.648667,
2003-01-21, 02:08:00,VALID,918.181,VALID,0,VALID,99.6493,VALID,0,VALID,19.2804,VALID,103,VALID,0.536932,
2003-01-21, 02:09:00,VALID,918.167,VALID,0,VALID,99.6506,VALID,0.0169808,VALID,19.2965,VALID,137,VALID,0.450955,
2003-01-21, 02:10:00,VALID,918.152,VALID,0,VALID,99.6544,VALID,0.0169808,VALID,19.3065,VALID,131,VALID,0.268012,
2003-01-21, 02:11:00,VALID,918.125,VALID,0,VALID,99.6531,VALID,0,VALID,19.3132,VALID,131,VALID,0.394176,
2003-01-21, 02:12:00,VALID,918.122,VALID,0,VALID,99.6595,VALID,0.0169808,VALID,19.3162,VALID,135,VALID,0.461782,
2003-01-21, 02:13:00,VALID,918.103,VALID,0,VALID,99.648,VALID,0,VALID,19.3196,VALID,119,VALID,0.533318,
2003-01-21, 02:14:00,VALID,918.089,VALID,0,VALID,99.6556,VALID,0.0169808,VALID,19.3129,VALID,115,VALID,0.124763,
2003-01-21, 02:15:00,VALID,918.076,VALID,0,VALID,99.6531,VALID,0.0169808,VALID,19.3194,VALID,112,VALID,0.384766,
2003-01-21, 02:16:00,VALID,918.064,VALID,0,VALID,99.6607,VALID,0,VALID,19.3095,VALID,103,VALID,0.521918,
2003-01-21, 02:17:00,VALID,918.041,VALID,0,VALID,99.6506,VALID,0.0339617,VALID,19.303,VALID,106,VALID,0.774384,
2003-01-21, 02:18:00,VALID,918.019,VALID,0,VALID,99.6518,VALID,0.0339617,VALID,19.2871,VALID,107,VALID,0.789063,
2003-01-21, 02:19:00,VALID,917.996,VALID,0,VALID,99.6455,VALID,0,VALID,19.2839,VALID,101,VALID,0.668658,
2003-01-21, 02:20:00,VALID,917.984,VALID,0,VALID,99.6607,VALID,0.0339617,VALID,19.2737,VALID,97,VALID,0.492424,
2003-01-21, 02:21:00,VALID,917.978,VALID,0,VALID,99.6544,VALID,0,VALID,19.2806,VALID,97,VALID,0.419705,
2003-01-21, 02:22:00,VALID,917.978,VALID,0,VALID,99.6569,VALID,0,VALID,19.2675,VALID,104,VALID,0.527995,
2003-01-21, 02:23:00,VALID,917.974,VALID,0,VALID,99.6582,VALID,0,VALID,19.2612,VALID,107,VALID,0.35464,
2003-01-21, 02:24:00,VALID,917.949,VALID,0,VALID,99.6531,VALID,0.0169808,VALID,19.2481,VALID,105,VALID,0.267525,
2003-01-21, 02:25:00,VALID,917.938,VALID,0,VALID,99.6595,VALID,0.0169808,VALID,19.2483,VALID,122,VALID,0.515855,
2003-01-21, 02:26:00,VALID,917.918,VALID,0,VALID,99.6531,VALID,0.0169808,VALID,19.2483,VALID,126,VALID,0.427083,
2003-01-21, 02:27:00,VALID,917.898,VALID,0,VALID,99.6582,VALID,0,VALID,19.2389,VALID,123,VALID,0.594835,
2003-01-21, 02:28:00,VALID,917.892,VALID,0,VALID,99.6531,VALID,0.0169808,VALID,19.2192,VALID,124,VALID,0.478082,
2003-01-21, 02:29:00,VALID,917.888,VALID,0,VALID,99.6582,VALID,0.0169808,VALID,19.2262,VALID,115,VALID,0.751184,
2003-01-21, 02:30:00,VALID,917.886,VALID,0,VALID,99.6582,VALID,0.0169808,VALID,19.2061,VALID,119,VALID,0.701647,
2003-01-21, 02:31:00,VALID,917.866,VALID,0,VALID,99.6607,VALID,0.0339617,VALID,19.1897,VALID,117,VALID,0.718061,
2003-01-21, 02:32:00,VALID,917.87,VALID,0,VALID,99.6595,VALID,0.0339617,VALID,19.1867,VALID,115,VALID,0.463305,
2003-01-21, 02:33:00,VALID,917.855,VALID,0,VALID,99.6671,VALID,0,VALID,19.1777,VALID,115,VALID,0.496528,
2003-01-21, 02:34:00,VALID,917.855,VALID,0,VALID,99.6671,VALID,-0.0169808,VALID,19.1708,VALID,122,VALID,0.437283,
2003-01-21, 02:35:00,VALID,917.856,VALID,0,VALID,99.6747,VALID,0.0339617,VALID,19.1675,VALID,125,VALID,0.486269,
2003-01-21, 02:36:00,VALID,917.855,VALID,0,VALID,99.6722,VALID,0,VALID,19.1777,VALID,128,VALID,0.654139,
2003-01-21, 02:37:00,VALID,917.859,VALID,0,VALID,99.6773,VALID,0,VALID,19.1745,VALID,126,VALID,0.559972,
2003-01-21, 02:38:00,VALID,917.879,VALID,0,VALID,99.6735,VALID,0.0169808,VALID,19.1705,VALID,133,VALID,0.488163,
2003-01-21, 02:39:00,VALID,917.9,VALID,0,VALID,99.676,VALID,0.0169808,VALID,19.1643,VALID,132,VALID,0.573568,
2003-01-21, 02:40:00,VALID,917.908,VALID,0,VALID,99.6735,VALID,0.0339617,VALID,19.1549,VALID,131,VALID,0.483073,
2003-01-21, 02:41:00,VALID,917.911,VALID,0,VALID,99.6722,VALID,0,VALID,19.1355,VALID,125,VALID,0.747869,
2003-01-21, 02:42:00,VALID,917.924,VALID,0,VALID,99.6646,VALID,0.0169808,VALID,19.1258,VALID,114,VALID,0.542019,
2003-01-21, 02:43:00,VALID,917.908,VALID,0,VALID,99.6569,VALID,0.0339617,VALID,19.0965,VALID,95,VALID,0.672564,
2003-01-21, 02:44:00,VALID,917.904,VALID,0,VALID,99.6569,VALID,0,VALID,19.0612,VALID,120,VALID,0.790246,
2003-01-21, 02:45:00,VALID,917.903,VALID,0,VALID,99.6569,VALID,0.0169808,VALID,19.0644,VALID,93,VALID,0.530816,
2003-01-21, 02:46:00,VALID,917.891,VALID,0,VALID,99.6633,VALID,0,VALID,19.0517,VALID,131,VALID,0.587674,
2003-01-21, 02:47:00,VALID,917.883,VALID,0,VALID,99.6735,VALID,0,VALID,19.0549,VALID,125,VALID,0.412879,
2003-01-21, 02:48:00,VALID,917.864,VALID,0,VALID,99.676,VALID,0,VALID,19.0683,VALID,140,VALID,0.537162,
2003-01-21, 02:49:00,VALID,917.853,VALID,0,VALID,99.6785,VALID,-0.0339617,VALID,19.0709,VALID,143,VALID,0.279642,
2003-01-21, 02:50:00,VALID,917.833,VALID,0,VALID,99.6925,VALID,-0.0679233,VALID,19.0706,VALID,138,VALID,0.525568,
2003-01-21, 02:51:00,VALID,917.816,VALID,0,VALID,99.6862,VALID,-0.0509425,VALID,19.0676,VALID,144,VALID,0.405816,
2003-01-21, 02:52:00,VALID,917.797,VALID,0,VALID,99.6989,VALID,-0.0509425,VALID,19.0683,VALID,136,VALID,0.31467,
2003-01-21, 02:53:00,VALID,917.79,VALID,0,VALID,99.6938,VALID,0,VALID,19.0679,VALID,127,VALID,0.653883,
2003-01-21, 02:54:00,VALID,917.791,VALID,0,VALID,99.6887,VALID,-0.0679233,VALID,19.0582,VALID,125,VALID,0.599873,
2003-01-21, 02:55:00,VALID,917.78,VALID,0,VALID,99.69,VALID,-0.0339617,VALID,19.0584,VALID,130,VALID,0.449908,
2003-01-21, 02:56:00,VALID,917.775,VALID,0,VALID,99.6874,VALID,-0.0169808,VALID,19.0522,VALID,124,VALID,0.461648,
2003-01-21, 02:57:00,VALID,917.769,VALID,0,VALID,99.6887,VALID,-0.0169808,VALID,19.039,VALID,116,VALID,0.562066,
2003-01-21, 02:58:00,VALID,917.761,VALID,0,VALID,99.6963,VALID,-0.0169808,VALID,19.0353,VALID,119,VALID,0.651476,
2003-01-21, 02:59:00,VALID,917.756,VALID,0,VALID,99.6963,VALID,-0.0169808,VALID,19.0425,VALID,115,VALID,0.632339,
2003-01-21, 03:00:00,VALID,917.769,VALID,0,VALID,99.6951,VALID,0,VALID,19.042,VALID,118,VALID,0.551309,
2003-01-21, 03:01:00,VALID,917.769,VALID,0,VALID,99.6913,VALID,-0.0169808,VALID,19.0159,VALID,128,VALID,0.288143,
2003-01-21, 03:02:00,VALID,917.785,VALID,0,VALID,99.7116,VALID,-0.0509425,VALID,19.0196,VALID,147,VALID,0.206203,
2003-01-21, 03:03:00,VALID,917.808,VALID,0,VALID,99.6989,VALID,-0.0509425,VALID,19.0236,VALID,147,VALID,0.277778,
2003-01-21, 03:04:00,VALID,917.819,VALID,0,VALID,99.7002,VALID,0.0679233,VALID,19.0154,VALID,147,VALID,0.250434,
2003-01-21, 03:05:00,VALID,917.812,VALID,0,VALID,99.7091,VALID,0.0679233,VALID,19.005,VALID,144,VALID,0.359612,
2003-01-21, 03:06:00,VALID,917.819,VALID,0,VALID,99.7002,VALID,0.101885,VALID,19.0055,VALID,144,VALID,0.358108,
2003-01-21, 03:07:00,VALID,917.814,VALID,0,VALID,99.6951,VALID,0.0679233,VALID,18.973,VALID,122,VALID,0.401654,
2003-01-21, 03:08:00,VALID,917.783,VALID,0,VALID,99.6887,VALID,0.0679233,VALID,18.9404,VALID,107,VALID,0.610559,
2003-01-21, 03:09:00,VALID,917.752,VALID,0,VALID,99.6887,VALID,0.0509425,VALID,18.9049,VALID,108,VALID,0.638238,
2003-01-21, 03:10:00,VALID,917.717,VALID,0,VALID,99.6925,VALID,0.101885,VALID,18.9188,VALID,98,VALID,0.515408,
2003-01-21, 03:11:00,VALID,917.682,VALID,0,VALID,99.7091,VALID,0.0679233,VALID,18.9084,VALID,106,VALID,0.524384,
2003-01-21, 03:12:00,VALID,917.66,VALID,0,VALID,99.6976,VALID,0.0679233,VALID,18.8984,VALID,111,VALID,0.373733,
2003-01-21, 03:13:00,VALID,917.634,VALID,0,VALID,99.7218,VALID,0.0849042,VALID,18.9245,VALID,114,VALID,0.47955,
2003-01-21, 03:14:00,VALID,917.628,VALID,0,VALID,99.7141,VALID,0.0849042,VALID,18.9275,VALID,135,VALID,0.471354,
2003-01-21, 03:15:00,VALID,917.631,VALID,0,VALID,99.7141,VALID,0.0849042,VALID,18.9372,VALID,147,VALID,0.678602,
2003-01-21, 03:16:00,VALID,917.634,VALID,0,VALID,99.7091,VALID,0.0679233,VALID,18.9277,VALID,151,VALID,1.06944,
2003-01-21, 03:17:00,VALID,917.636,VALID,0,VALID,99.7103,VALID,0.0849042,VALID,18.9538,VALID,154,VALID,0.673532,
2003-01-21, 03:18:00,VALID,917.651,VALID,0,VALID,99.7116,VALID,0.0679233,VALID,18.9536,VALID,151,VALID,0.918708,
2003-01-21, 03:19:00,VALID,917.651,VALID,0,VALID,99.7116,VALID,0,VALID,18.9749,VALID,143,VALID,0.704504,
2003-01-21, 03:20:00,VALID,917.634,VALID,0,VALID,99.7281,VALID,0,VALID,18.9647,VALID,156,VALID,0.627367,
2003-01-21, 03:21:00,VALID,917.635,VALID,0,VALID,99.7141,VALID,-0.0509425,VALID,18.9553,VALID,129,VALID,0.490234,
2003-01-21, 03:22:00,VALID,917.624,VALID,0,VALID,99.7078,VALID,-0.0509425,VALID,18.9423,VALID,120,VALID,0.361545,
2003-01-21, 03:23:00,VALID,917.599,VALID,0,VALID,99.7091,VALID,-0.0509425,VALID,18.9393,VALID,109,VALID,0.612453,
2003-01-21, 03:24:00,VALID,917.595,VALID,0,VALID,99.7167,VALID,0,VALID,18.9587,VALID,113,VALID,0.444679,
2003-01-21, 03:25:00,VALID,917.596,VALID,0,VALID,99.7167,VALID,0,VALID,18.9846,VALID,118,VALID,0.0422794,
2003-01-21, 03:26:00,VALID,917.57,VALID,0,VALID,99.7078,VALID,-0.0169808,VALID,18.965,VALID,118,VALID,0,
2003-01-21, 03:27:00,VALID,917.591,VALID,0,VALID,99.7065,VALID,0,VALID,18.9523,VALID,118,VALID,0,
2003-01-21, 03:28:00,VALID,917.605,VALID,0,VALID,99.7002,VALID,-0.0339617,VALID,18.9329,VALID,118,VALID,0,
2003-01-21, 03:29:00,VALID,917.644,VALID,0,VALID,99.6862,VALID,-0.0169808,VALID,18.9361,VALID,118,VALID,0.0653409,
2003-01-21, 03:30:00,VALID,917.651,VALID,0,VALID,99.6836,VALID,-0.0339617,VALID,18.9428,VALID,120,VALID,0.230997,
2003-01-21, 03:31:00,VALID,917.677,VALID,0,VALID,99.6785,VALID,-0.0169808,VALID,18.9287,VALID,121,VALID,0.102022,
2003-01-21, 03:32:00,VALID,917.68,VALID,0,VALID,99.6696,VALID,0,VALID,18.9292,VALID,121,VALID,0.110795,
2003-01-21, 03:33:00,VALID,917.681,VALID,0,VALID,99.6633,VALID,0,VALID,18.8966,VALID,121,VALID,0.0180122,